Location: Altmatt
(47.1333°N, 8.7000°E)
Time: 02:52:11
(UTC+00:00)

ATLAS 2AS CENTAUR R/B - Pass Details

Date: 13 July 2020
Orbit: 930 x 1282 km, 63.7° (Epoch: 19 July)

Event Time Altitude Azimuth Distance (km) Brightness Sun altitude
Rises 20:15:12 0° 320° (NW) 4,186 8.2 -8.3°
Reaches altitude 10° 20:18:04 10° 321° (NW) 3,180 6.9 -8.7°
Maximum altitude 20:25:44 86° 49° (NE) 1,159 2.9 -9.6°
Enters shadow 20:32:10 13° 140° (SE) 2,719 4.1 -10.3°
